SKYSAT-C4

Last updated on Sat Oct 25 2025 00:02:32 GMT+0000 (Coordinated Universal Time)

1 41771U 16058B 25297.65011957 .00017462 00000+0 43431-3 0 9996 2 41771 96.9435 325.2746 0003356 72.7429 287.4185 15.40334114509112
UTC large
Height (km)
Speed (km/s)
/
Latitude / Longitude
Inclination (degrees)
Orbital Period (minutes)
Azimuth
Elevation
Range (km)
Doppler Factor

Next 0 passes for location: London (51.5072 / 0.1276)

Sorry there are no passes over London.